Tracking 30995 objects as of 7-Jul-2025
HD Live streaming from Space Station
objects crossing your sky now

FENGYUN 1C DEB

Track FENGYUN 1C DEB now!
10-day predictions


NORAD ID: 30355
Int'l Code: 1999-025ABS
Perigee: 798.3 km
Apogee: 878.4 km
Inclination: 98.6 °
Period: 101.5 minutes
Semi major axis: 7209 km
RCS: 0.025 m2 (small)
Launch date: May 10, 1999
Source: People's Republic of China (PRC)
Launch site: Taiyaun Space Center, China (TSC)

Note: This is SATELLITE DEBRIS
Your satellite tracking list
Your tracking list is empty




NASA's NSSDC Master Catalog

Two Line Element Set (TLE):
1 30355U 99025ABS 25187.00814627  .00000950  00000-0  47480-3 0  9992
2 30355  98.5875 196.3875 0055535  50.7778   5.0801 14.18278356950863
Source of the keplerian elements: AFSPC